Tracking 25710 objects as of 5-Jul-2022
HD Live streaming from Space Station
objects crossing your sky now

STARLINK-1698

Track STARLINK-1698 now!
10-day predictions
STARLINK-1698 is classified as:


NORAD ID: 46547
Int'l Code: 2020-070R
Perigee: 553.2 km
Apogee: 555.6 km
Inclination: 53.1 °
Period: 95.6 minutes
Semi major axis: 6925 km
RCS: Unknown
Launch date: October 6, 2020
Source: United States (US)
Launch site: AIR FORCE EASTERN TEST RANGE (AFETR)
aabbcc
Your satellite tracking list
Your tracking list is empty




NASA's NSSDC Master Catalog

Two Line Element Set (TLE):
1 46547U 20070R   22185.89623112 -.00003713  00000-0 -23056-3 0  9990
2 46547  53.0541  89.1325 0001693  58.1850 301.9304 15.06385667 96967
Source of the keplerian elements: AFSPC